Portage Southport, Manitoba

9:59 AM CST on December 14, 2017 (GMT -0600)
Portage Southport

Weather History for CYPG - June, 2013

Change the Weather History Date:

Tuesday, June 25, 2013

  Actual Average Record
Temperature  
Mean Temperature 71 °F -  
Max Temperature 86 °F 74 °F 86 °F (2013)
Min Temperature 56 °F 56 °F 41 °F (2017)
Cooling Degree Days 6    
Growing Degree Days 21 (Base 50)    
Moisture  
Dew Point 65 °F    
Average Humidity 72    
Maximum Humidity 94    
Minimum Humidity 49    
Precipitation  
Precipitation 0.00 in - - ()
Sea Level Pressure  
Sea Level Pressure 29.70 in    
Wind  
Wind Speed 6 mph ()    
Max Wind Speed 28 mph    
Max Gust Speed 46 mph    
Visibility 13.7 miles    
Events Rain , Thunderstorm    
Averages and records for this station are not official NWS values.
T = Trace of Precipitation, MM = Missing Value Source: Averaged Metar Reports

Daily Weather History Graph

Daily Weather History Graph

Search for Another Location

Airport or City:

Trip Planner

Search our weather history database for the weather conditions in past years. The results will help you decide how hot, cold, wet, or windy it might be!

Date:

Astronomy

Jun. 25, 2013 Rise Set
Actual Time 5:25 AM CDT 9:45 PM CDT
Civil Twilight 4:41 AM CDT 10:30 PM CDT
Nautical Twilight 3:36 AM CDT 11:35 PM CDT
Astronomical Twilight 2:08 AM CDT 1:03 AM CDT
Moon 11:10 PM CDT (6/25) 8:24 AM CDT (6/25)
Length of Visible Light 17h 49m
Length of Day
16h 20m
Waning Gibbous, 92% of the Moon is Illuminated
Jun 25
Waning Gibbous
Jun 29
Last Quarter
Jul 8
New
Jul 15
First Quarter
Jul 22
Full

Hourly Weather History & Observations

Time (CDT) Temp. Heat Index Dew Point Humidity Pressure Visibility Wind Dir Wind Speed Gust Speed Precip Events Conditions
12:00 AM 64.4 °F - 60.8 °F 88% 29.75 in 15.0 mi Calm Calm - N/A   Partly Cloudy
1:00 AM 61 °F - 59 °F 92% 29.74 in - WNW 1.2 mph - -  
6:00 AM 60.8 °F - 57.2 °F 88% 29.74 in 15.0 mi Calm Calm - N/A   Scattered Clouds
7:00 AM 65 °F - 61 °F 82% 29.73 in - SE 3.5 mph - -  
7:00 AM 62.6 °F - 60.8 °F 94% 29.74 in 15.0 mi ESE 3.5 mph - N/A   Scattered Clouds
8:00 AM 68.0 °F - 62.6 °F 83% 29.73 in 15.0 mi East 5.8 mph - N/A   Scattered Clouds
9:00 AM 73.4 °F - 62.6 °F 69% 29.73 in 15.0 mi East 9.2 mph - N/A   Scattered Clouds
10:00 AM 73.4 °F - 64.4 °F 73% 29.74 in 15.0 mi ESE 8.1 mph - N/A   Scattered Clouds
11:00 AM 77.0 °F - 68.0 °F 74% 29.74 in 15.0 mi East 6.9 mph - N/A   Mostly Cloudy
12:00 PM 80.6 °F 83.9 °F 69.8 °F 70% 29.72 in 15.0 mi ESE 8.1 mph - N/A   Mostly Cloudy
1:00 PM 81 °F - 68 °F 57% 29.71 in - ESE 9.2 mph - -  
1:00 PM 80.6 °F 83.2 °F 68.0 °F 65% 29.72 in 15.0 mi East 11.5 mph - N/A   Mostly Cloudy
2:00 PM 82.4 °F 86.3 °F 69.8 °F 66% 29.71 in 15.0 mi East 10.4 mph - N/A   Mostly Cloudy
3:00 PM 84.2 °F 87.3 °F 68.0 °F 58% 29.69 in 15.0 mi East 10.4 mph - N/A   Mostly Cloudy
4:00 PM 84.2 °F 88.4 °F 69.8 °F 62% 29.68 in 15.0 mi ESE 10.4 mph - N/A   Mostly Cloudy
5:00 PM 84.2 °F 86.6 °F 66.2 °F 55% 29.67 in 15.0 mi ESE 9.2 mph - N/A   Mostly Cloudy
6:00 PM 82.4 °F 86.3 °F 69.8 °F 66% 29.65 in 15.0 mi ESE 6.9 mph - N/A   Mostly Cloudy
7:00 PM 84 °F - 68 °F 49% 29.62 in - East 10.4 mph - -  
7:00 PM 84.2 °F 88.4 °F 69.8 °F 62% 29.63 in 15.0 mi East 9.2 mph - N/A   Mostly Cloudy
8:00 PM 80.6 °F 83.2 °F 68.0 °F 65% 29.63 in 15.0 mi ENE 6.9 mph - N/A   Overcast
9:00 PM 78.8 °F - 66.2 °F 65% 29.61 in 15.0 mi ENE 13.8 mph - N/A   Overcast
9:09 PM - - - N/A% - 15.0 mi ENE 9.2 mph - N/A Thunderstorm Thunderstorm
9:19 PM - - - N/A% - 5.0 mi East 16.1 mph - N/A Rain , Thunderstorm Light Thunderstorms and Rain
10:00 PM 64.4 °F - 62.6 °F 94% 29.73 in 2.0 mi West 27.6 mph 46.0 mph N/A Rain , Thunderstorm Heavy Thunderstorms and Rain
10:41 PM - - - N/A% - 10.0 mi West 10.4 mph - N/A Rain , Thunderstorm Light Thunderstorms and Rain